Weather History for KIGX - October, 2012

Change the Weather History Date:

Thursday, October 4, 2012

  Actual Average Record
Temperature  
Mean Temperature 70 °F -  
Max Temperature 78 °F 74 °F 95 °F (1954)
Min Temperature 64 °F 48 °F 28 °F (1974)
Cooling Degree Days 6    
Growing Degree Days 20 (Base 50)    
Moisture  
Dew Point 63 °F    
Average Humidity 79    
Maximum Humidity 93    
Minimum Humidity 60    
Precipitation  
Precipitation 0.00 in - - ()
Sea Level Pressure  
Sea Level Pressure 30.18 in    
Wind  
Wind Speed 2 mph (West)    
Max Wind Speed 7 mph    
Max Gust Speed -    
Visibility 10 miles    
Events Rain    
Averages and records for this station are not official NWS values.
T = Trace of Precipitation, MM = Missing Value Source: NWS Daily Summary

Daily Weather History Graph

Daily Weather History Graph

Search for Another Location

Airport or City:

Trip Planner

Search our weather history database for the weather conditions in past years. The results will help you decide how hot, cold, wet, or windy it might be!

Date:

Astronomy

Oct. 04, 2012 Rise Set
Actual Time 7:14 AM EDT 6:54 PM EDT
Civil Twilight 6:48 AM EDT 7:20 PM EDT
Nautical Twilight 6:18 AM EDT 7:50 PM EDT
Astronomical Twilight 5:49 AM EDT 8:19 PM EDT
Moon 9:38 PM EDT (10/4) 11:21 AM EDT (10/4)
Length of Visible Light 12h 31m
Length of Day
11h 40m
Waning Gibbous, 82% of the Moon is Illuminated
Oct 4
Waning Gibbous
Oct 8
Last Quarter
Oct 15
New
Oct 21
First Quarter
Oct 29
Full

Hourly Weather History & Observations

Time (EDT) Temp. Dew Point Humidity Pressure Visibility Wind Dir Wind Speed Gust Speed Precip Events Conditions
12:56 AM 72.0 °F 66.0 °F 81% 30.18 in 10.0 mi Variable 3.5 mph - N/A   Overcast
1:56 AM 71.1 °F 64.0 °F 78% 30.17 in 10.0 mi Calm Calm - N/A   Partly Cloudy
2:56 AM 69.1 °F 64.9 °F 87% 30.16 in 10.0 mi Calm Calm - N/A   Mostly Cloudy
3:56 AM 69.1 °F 64.0 °F 84% 30.16 in 10.0 mi West 5.8 mph - 0.00 in   Mostly Cloudy
4:56 AM 68.0 °F 63.0 °F 84% 30.17 in 10.0 mi Variable 3.5 mph - 0.00 in   Scattered Clouds
5:56 AM 68.0 °F 63.0 °F 84% 30.19 in 10.0 mi Calm Calm - N/A   Partly Cloudy
6:56 AM 66.9 °F 62.1 °F 84% 30.20 in 10.0 mi West 4.6 mph - N/A   Clear
7:56 AM 66.9 °F 62.1 °F 84% 30.21 in 10.0 mi West 3.5 mph - N/A   Mostly Cloudy
8:56 AM 66.9 °F 63.0 °F 87% 30.22 in 10.0 mi Calm Calm - 0.00 in Rain Light Rain
9:56 AM 69.1 °F 64.0 °F 84% 30.22 in 10.0 mi Calm Calm - 0.00 in   Clear
10:56 AM 70.0 °F 64.0 °F 81% 30.23 in 10.0 mi Calm Calm - N/A   Overcast
11:56 AM 73.9 °F 63.0 °F 68% 30.22 in 10.0 mi Variable 5.8 mph - N/A   Scattered Clouds
12:56 PM 77.0 °F 62.1 °F 60% 30.20 in 10.0 mi West 6.9 mph - N/A   Scattered Clouds
1:56 PM 77.0 °F 62.1 °F 60% 30.19 in 10.0 mi Variable 4.6 mph - N/A   Clear
2:56 PM 75.9 °F 63.0 °F 64% 30.17 in 10.0 mi Calm Calm - N/A   Clear
3:56 PM 75.9 °F 63.0 °F 64% 30.16 in 10.0 mi Variable 3.5 mph - N/A   Clear
4:56 PM 75.9 °F 62.1 °F 62% 30.15 in 10.0 mi West 3.5 mph - N/A   Clear
5:56 PM 73.0 °F 64.0 °F 73% 30.16 in 10.0 mi Calm Calm - N/A   Clear
6:56 PM 69.1 °F 64.0 °F 84% 30.16 in 10.0 mi Calm Calm - N/A   Clear
7:56 PM 66.9 °F 64.0 °F 90% 30.17 in 10.0 mi Calm Calm - N/A   Clear
8:56 PM 64.9 °F 63.0 °F 93% 30.17 in 10.0 mi Calm Calm - N/A   Clear
10:56 PM 64.9 °F 62.1 °F 90% 30.19 in 10.0 mi Calm Calm - N/A   Clear
11:56 PM 64.0 °F 61.0 °F 90% 30.19 in 10.0 mi Calm Calm - N/A   Clear